Weather Roundup
Issued by NWS Springfield, MO

Home | Current Version | Previous Version | Text Only | Print | Product List | Glossary On
Versions: 1 2 3 4 5 6 7 8 9 10 11 12 13 14 15 16 17 18 19 20 21 22 23 24 25 26 27 28 29 30 31 32 33 34 35 36 37 38 39 40 41 42 43 44 45 46 47 48 49 50
000
NZUS99 KSGF 201307
HRRSGF

HOURLY WEATHER
NATIONAL WEATHER SERVICE SPRINGFIELD MO
700 AM CST FRI JAN 20 2017

......SGF CWA......

CITY           SKY/WX    TMP DP  RH WIND       PRES   REMARKS
SPRINGFIELD    LGT RAIN  48  47  96 S9        29.60R FOG
JOPLIN         CLOUDY    49  49 100 SE7       29.57S
WEST PLAINS    CLOUDY    49  47  93 S7        29.67R
ROLLA          MOCLDY    45  45 100 S5        29.60R FOG
OSAGE BEACH    CLOUDY    47  46  97 SE3       29.61S FOG
BRANSON        CLOUDY    45  45 100 CALM      29.62S FOG

......SURROUNDING SGF CWA......

CITY           SKY/WX    TMP DP  RH WIND       PRES   REMARKS
CHANUTE        FOG       48  47  96 SE7       29.55R VSB 3/4
PARSONS        CLOUDY    49  48  97 SE3       29.55S FOG
COFFEYVILLE    CLOUDY    49  47  93 E7        29.54S
EMPORIA        FOG       44  44 100 SE6       29.55R VSB 1/2
GROVE OK       CLOUDY    52  50  93 SE5       29.57F
ROGERS AR      PTCLDY    45  45 100 SE5       29.58F
SILOAM SPRINGS CLEAR     46  45  93 SE7       29.56F
HARRISON AR    CLOUDY    46  46 100 E5        29.62S
NEAR YELLVILLE CLOUDY    45  41  87 CALM      29.61F

......KANSAS AND MISSOURI......

CITY           SKY/WX    TMP DP  RH WIND       PRES   REMARKS
KANSAS CTY INT FOG       45  43  93 E6        29.55F VSB 1/2
DOWNTOWN KC    MOCLDY    46  45  96 NE3       29.55F
COLUMBIA       FOG       46  46 100 E5        29.60F VSB 3/4
SEDALIA        FOG       45  44  97 E3        29.59F VSB 1/4
ST JOSEPH      CLOUDY    44  44 100 CALM      29.58S
ST LOUIS       CLOUDY    49  47  93 S3        29.64R FOG
SPIRIT OF STL  CLOUDY    46  46 100 CALM      29.63S
KIRKSVILLE     FOG       40  39  97 CALM      29.61R VSB 1/4
WICHITA        CLOUDY    47  46  97 E6        29.47R FOG
TOPEKA         CLOUDY    45  43  93 SE3       29.56R FOG
OLATHE         FOG       44  44 100 SE6       29.56S VSB 1/2

......TENNESSEE......

CITY           SKY/WX    TMP DP  RH WIND       PRES   REMARKS
MEMPHIS        CLOUDY    57  56  96 S8        29.73R
NASHVILLE      MOCLDY    56  53  90 S9        29.77R

......ARKANSAS.......

CITY           SKY/WX    TMP DP  RH WIND       PRES   REMARKS
FAYETTEVILLE   CLOUDY    49  48  97 CALM      29.58S
FT SMITH       LGT RAIN  44  43  96 CALM      29.60S VSB 1/4
LITTLE ROCK    CLOUDY    55  55 100 S7        29.68S

......OKLAHOMA.......

CITY           SKY/WX    TMP DP  RH WIND       PRES   REMARKS
TULSA          CLOUDY    50  49  96 SE9       29.50F
PONCA CITY     CLOUDY    49  45  86 SE14      29.48R
MCALESTER      CLEAR     51  45  79 S9        29.55S
OKLAHOMA CITY  PTCLDY    37  36  96 S10       29.48S WCI  30

......IOWA............

CITY           SKY/WX    TMP DP  RH WIND       PRES   REMARKS
DES MOINES     FOG       37  36  96 E7        29.59F VSB 1/4 WCI  32
QUAD CITIES    FOG       37  35  92 E6        29.61S VSB 3/4 WCI  32

......ILLINOIS........

CITY           SKY/WX    TMP DP  RH WIND       PRES   REMARKS
QUINCY         FOG       41  41 100 CALM      29.62R VSB 1/4
CHICAGO        LGT RAIN  38  37  97 NE7       29.62S FOG     WCI  33




USA.gov is the U.S. government's official web portal to all federal, state and local government web resources and services.